DW7584 Weather Reports


Display with metric or nautical units.
time (UTC)temp
F
wind
direction
speed
MPH
gust
MPH
rain 1hr
in
rain 24hr
in
rain mn
in
humidity
%
barometer
mb
20260831063536 69 0.0 0.0 0.00 0.29 0.27 97 1015.9
20260831062515 69 0.0 0.0 0.00 0.29 0.27 97 1016.1
20260831061515 69 0.0 0.0 0.19 0.29 0.27 97 1016.2
20260831060516 69 0.0 0.0 0.27 0.29 0.27 97 1016.1
20260831055516 69 0.0 0.0 0.27 0.29 0.27 97 1016.2
20260831054536 69 0.0 0.0 0.27 0.29 0.27 96 1016.3
20260831053536 69 0.0 0.0 0.27 0.29 0.27 97 1016.2
20260831052515 69 0.0 0.0 0.27 0.29 0.27 96 1016.2
20260831051516 69 0.0 0.0 0.08 0.10 0.08 96 1016.2
20260831050522 69 0.0 0.0 0.00 0.02 0.00 96 1016.4
20260831045516 69 0.0 0.0 0.00 0.02 0.02 96 1016.4
20260831044516 69 0.0 0.0 0.00 0.02 0.02 96 1016.3
20260831043516 69 0.0 0.0 0.00 0.02 0.02 95 1016.2
20260831042516 69 0.0 0.0 0.00 0.02 0.02 95 1016.0
20260831041556 69 0.0 0.0 0.00 0.02 0.02 95 1016.0
20260831040516 69 0.0 0.0 0.00 0.02 0.02 95 1015.8
20260831035521 69 0.0 0.0 0.00 0.02 0.02 95 1015.7
20260831034517 69 68 1.0 3.0 0.00 0.02 0.02 95 1015.6
20260831033536 69 0.0 1.0 0.00 0.02 0.02 95 1015.7
20260831032516 69 0.0 0.0 0.00 0.02 0.02 95 1016.0
20260831031516 69 0.0 0.0 0.00 0.02 0.02 95 1015.8
20260831030515 69 0.0 0.0 0.00 0.02 0.02 95 1015.7
20260831025535 69 0.0 0.0 0.00 0.02 0.02 95 1015.7
20260831024515 69 0.0 0.0 0.00 0.02 0.02 94 1015.4
20260831023517 70 0.0 0.0 0.00 0.02 0.02 94 1015.5
20260831022517 70 0.0 0.0 0.00 0.02 0.02 94 1015.6
20260831021517 70 0.0 0.0 0.00 0.02 0.02 94 1015.5
20260831020517 70 0.0 2.0 0.00 0.02 0.02 94 1015.3
20260831015517 70 45 2.0 4.0 0.00 0.02 0.02 94 1015.0
20260831014538 70 68 1.0 3.0 0.00 0.02 0.02 94 1015.2
20260831013516 70 45 2.0 4.0 0.00 0.02 0.02 94 1015.2
20260831012517 71 68 1.0 2.0 0.00 0.02 0.02 93 1015.3
20260831011537 71 45 1.0 3.0 0.00 0.02 0.02 93 1015.3
20260831010518 71 68 1.0 2.0 0.00 0.02 0.02 93 1015.2
20260831005517 71 45 2.0 5.0 0.00 0.02 0.02 92 1014.9
20260831004518 71 45 1.0 3.0 0.00 0.02 0.02 91 1015.0
20260831003517 71 45 2.0 6.0 0.00 0.02 0.02 91 1015.1
20260831002518 72 45 4.0 6.0 0.00 0.02 0.02 91 1014.9
20260831001517 72 45 4.0 8.0 0.00 0.02 0.02 90 1014.9
20260831000517 72 45 4.0 9.0 0.00 0.02 0.02 90 1015.1
20260830235517 72 45 5.0 8.0 0.00 0.02 0.02 89 1015.1
20260830234517 73 45 4.0 9.0 0.00 0.02 0.02 89 1015.2
20260830233557 73 45 4.0 6.0 0.00 0.02 0.02 88 1015.1
20260830232517 73 68 4.0 6.0 0.00 0.02 0.02 88 1014.8
20260830231517 73 45 4.0 6.0 0.00 0.02 0.02 88 1014.6
20260830230517 73 68 4.0 7.0 0.00 0.02 0.02 87 1014.5
20260830225517 73 45 5.0 7.0 0.00 0.02 0.02 86 1014.6
20260830224537 74 68 3.0 5.0 0.00 0.02 0.02 86 1014.5
20260830223517 74 45 4.0 7.0 0.00 0.02 0.02 85 1014.6
20260830222518 74 45 4.0 7.0 0.00 0.02 0.02 84 1014.3
20260830221517 74 45 5.0 8.0 0.00 0.02 0.02 84 1014.3
20260830220517 74 45 4.0 7.0 0.00 0.02 0.02 85 1014.3
20260830215517 74 90 2.0 5.0 0.00 0.02 0.02 85 1014.3
20260830214517 74 68 5.0 10.0 0.00 0.02 0.02 84 1014.0
20260830213517 75 45 6.0 10.0 0.00 0.02 0.02 84 1014.4
20260830212518 76 68 4.0 8.0 0.00 0.02 0.02 84 1014.5
20260830211517 77 68 5.0 7.0 0.00 0.02 0.02 84 1014.4
20260830210516 77 68 4.0 7.0 0.00 0.02 0.02 82 1014.5
20260830205517 78 68 2.0 3.0 0.00 0.02 0.02 83 1014.7
20260830204517 78 68 2.0 4.0 0.00 0.02 0.02 82 1014.6
20260830203517 78 45 1.0 3.0 0.00 0.02 0.02 80 1014.9
20260830202519 78 45 2.0 4.0 0.00 0.03 0.02 82 1014.7
20260830201539 78 45 2.0 4.0 0.00 0.04 0.02 82 1014.7
20260830200517 78 45 2.0 4.0 0.00 0.05 0.02 80 1014.7
20260830195517 79 45 1.0 4.0 0.00 0.06 0.02 78 1015.0
20260830194537 79 45 2.0 3.0 0.00 0.06 0.02 79 1014.9
20260830193517 79 23 2.0 5.0 0.00 0.06 0.02 78 1014.9
20260830192516 79 23 1.0 3.0 0.00 0.06 0.02 77 1015.0
20260830191518 79 23 2.0 3.0 0.00 0.06 0.02 76 1015.2
20260830190516 78 45 3.0 4.0 0.00 0.06 0.02 78 1015.1
20260830185538 79 0 1.0 2.0 0.00 0.07 0.02 76 1014.8
20260830184521 79 315 1.0 3.0 0.00 0.07 0.02 76 1015.1
20260830183518 80 0.0 1.0 0.00 0.08 0.02 72 1014.8
20260830182516 81 0.0 2.0 0.00 0.08 0.02 71 1014.7
20260830181517 80 90 2.0 5.0 0.00 0.08 0.02 73 1014.5
20260830180517 80 68 1.0 4.0 0.00 0.08 0.02 74 1014.6
20260830175537 79 68 3.0 6.0 0.00 0.08 0.02 74 1014.5
20260830174517 78 45 3.0 4.0 0.00 0.08 0.02 77 1014.5
20260830173517 78 45 2.0 5.0 0.00 0.08 0.02 79 1014.6
20260830172518 78 23 3.0 5.0 0.00 0.09 0.02 78 1014.8
20260830171517 78 23 2.0 5.0 0.00 0.09 0.02 79 1014.8
20260830170517 77 45 2.0 4.0 0.00 0.09 0.02 80 1014.7
20260830165517 76 45 2.0 4.0 0.00 0.09 0.02 80 1014.6
20260830164517 76 45 1.0 5.0 0.00 0.09 0.02 80 1014.7
20260830163517 77 338 1.0 2.0 0.00 0.09 0.02 79 1015.0
20260830162517 77 0.0 2.0 0.00 0.09 0.02 78 1015.0
20260830161537 77 90 1.0 4.0 0.00 0.09 0.02 77 1015.1
20260830160516 76 90 2.0 4.0 0.00 0.09 0.02 78 1015.2
20260830155516 77 0.0 1.0 0.00 0.09 0.02 78 1015.2
20260830154517 75 90 3.0 5.0 0.00 0.09 0.02 82 1015.0
20260830153537 75 68 1.0 3.0 0.00 0.09 0.02 83 1015.1
20260830152516 75 90 1.0 3.0 0.00 0.09 0.02 84 1015.1
20260830151517 75 0.0 2.0 0.00 0.09 0.02 84 1015.2
20260830150517 74 0.0 1.0 0.00 0.09 0.02 85 1015.0
20260830145516 73 0.0 1.0 0.00 0.09 0.02 86 1014.8
20260830144537 73 0.0 1.0 0.00 0.09 0.02 87 1014.8
20260830143516 72 0.0 2.0 0.00 0.09 0.02 89 1014.8
20260830142517 71 0.0 2.0 0.00 0.09 0.02 89 1014.7
20260830141536 71 90 1.0 2.0 0.00 0.09 0.02 90 1014.6
20260830140516 70 90 1.0 2.0 0.00 0.09 0.02 90 1014.8
20260830135516 70 0.0 1.0 0.00 0.09 0.02 91 1014.9
20260830134516 70 0.0 2.0 0.00 0.09 0.02 91 1014.9
20260830133516 69 0.0 0.0 0.00 0.09 0.02 91 1015.0
20260830132517 69 0.0 2.0 0.00 0.09 0.02 92 1015.0
20260830131516 69 0.0 1.0 0.00 0.09 0.02 92 1014.8
20260830130516 69 0.0 2.0 0.00 0.09 0.02 92 1015.0
20260830125517 69 0.0 2.0 0.00 0.09 0.02 92 1015.0
20260830124516 68 90 1.0 3.0 0.00 0.09 0.02 92 1015.1
20260830123516 68 0.0 0.0 0.00 0.09 0.02 92 1014.9
20260830122536 68 0.0 0.0 0.00 0.09 0.02 93 1015.0
20260830121516 68 0.0 2.0 0.00 0.09 0.02 93 1015.0
20260830120516 68 90 1.0 3.0 0.00 0.09 0.02 93 1014.9
20260830115516 67 90 1.0 2.0 0.00 0.09 0.02 93 1014.7
20260830114537 67 0.0 0.0 0.00 0.09 0.02 94 1014.7
20260830113537 67 0.0 2.0 0.00 0.09 0.02 94 1014.5
20260830112517 67 0.0 2.0 0.00 0.09 0.02 94 1014.3
20260830111516 67 0.0 2.0 0.00 0.09 0.02 94 1014.2
20260830110536 67 0.0 1.0 0.00 0.09 0.02 94 1014.3
20260830105516 67 90 1.0 3.0 0.00 0.09 0.02 94 1014.3
20260830104556 67 0.0 1.0 0.00 0.09 0.02 94 1014.4
20260830103516 67 0.0 0.0 0.00 0.09 0.02 94 1014.4
20260830102536 67 0.0 1.0 0.00 0.09 0.02 94 1014.2
20260830101517 67 0.0 1.0 0.00 0.09 0.02 94 1014.2
20260830100516 67 0.0 1.0 0.00 0.09 0.02 94 1014.4
20260830095537 67 0.0 2.0 0.00 0.09 0.02 94 1014.6
20260830094516 67 270 1.0 2.0 0.00 0.09 0.02 94 1014.8
20260830093536 67 0.0 0.0 0.00 0.09 0.02 94 1014.8
20260830092536 67 0.0 0.0 0.00 0.09 0.02 94 1014.8
20260830091516 67 0.0 0.0 0.00 0.09 0.02 94 1014.9
20260830090517 67 0.0 0.0 0.00 0.09 0.02 94 1014.9
20260830085518 67 0.0 0.0 0.00 0.09 0.02 94 1015.0
20260830084519 67 0.0 0.0 0.00 0.09 0.02 93 1015.0
20260830083519 67 0.0 0.0 0.01 0.09 0.02 93 1015.1
20260830082518 67 0.0 0.0 0.01 0.09 0.02 93 1015.1
20260830081521 67 0.0 0.0 0.01 0.09 0.02 93 1015.3
20260830080520 67 0.0 0.0 0.01 0.09 0.02 93 1015.3
20260830075519 67 0.0 0.0 0.01 0.09 0.02 93 1015.3
20260830074548 67 0.0 1.0 0.02 0.09 0.02 93 1015.3
20260830073516 67 0.0 0.0 0.01 0.08 0.01 93 1015.3
20260830072536 67 0.0 0.0 0.01 0.08 0.01 93 1015.4
20260830071516 68 0.0 1.0 0.01 0.08 0.01 92 1015.5
20260830070536 68 0.0 2.0 0.01 0.08 0.01 91 1015.5
20260830065516 68 0.0 3.0 0.01 0.08 0.01 91 1015.6
20260830064516 68 0.0 0.0 0.00 0.07 0.00 91 1015.8